Overview Statistics Trail Chart Weather Telemetry Raw packets
 

This is the latest recevied weather packets stored in our database for station/object SV9TNF-57. If no packets are shown the sender has not sent any weather packets the latest 10 day(s).

<< 60 61 62 63 64 65 66 >>
Time Temp. Humidity Pressure Rain* Wind** Luminosity Snow
1788248291 31.11° C 35% 994.8 hPa 0 mm 2.24 m/s, 297° - -
1788247990 31.11° C 35% 994.7 hPa 0 mm 4.47 m/s, 299° - -
1788247690 31.11° C 35% 994.9 hPa 0 mm 6.71 m/s, 285° - -
1788247390 30.56° C 35% 994.7 hPa 0 mm 2.24 m/s, 1° - -
1788247090 30.56° C 36% 994.7 hPa 0 mm 11.62 m/s, 348° - -
1788246789 31.11° C 35% 994.6 hPa 0 mm 2.68 m/s, 283° - -
1788246489 30.56° C 35% 994.7 hPa 0 mm 12.96 m/s, 335° - -
1788246189 30.56° C 36% 994.5 hPa 0 mm 8.49 m/s, 317° - -
1788245889 31.67° C 35% 994.7 hPa 0 mm 4.92 m/s, 42° - -
1788245589 31.11° C 37% 994.8 hPa 0 mm 0 m/s - -
1788245289 31.11° C 37% 994.6 hPa 0 mm 4.02 m/s, 323° - -
1788244989 30.56° C 37% 994.7 hPa 0 mm 5.36 m/s, 19° - -
1788244689 30.56° C 40% 994.6 hPa 0 mm 1.34 m/s, 346° - -
1788244389 30° C 40% 994.6 hPa 0 mm 0.45 m/s, 308° - -
1788244089 30.56° C 40% 994.5 hPa 0 mm 0.89 m/s, 302° - -
1788243788 30° C 40% 994.4 hPa 0 mm 0 m/s - -
1788243489 30° C 41% 994.7 hPa 0 mm 0 m/s - -
1788243189 30° C 41% 994.5 hPa 0 mm 0 m/s - -
1788242889 29.44° C 42% 994.5 hPa 0 mm 1.34 m/s, 312° - -
1788242588 29.44° C 42% 994.5 hPa 0 mm 3.13 m/s, 301° - -
1788242288 29.44° C 43% 994.6 hPa 0 mm 4.02 m/s, 11° - -
1788241988 29.44° C 43% 994.6 hPa 0 mm 7.15 m/s, 330° - -
1788241688 29.44° C 43% 994.3 hPa 0 mm 2.68 m/s, 335° - -
1788241388 28.89° C 44% 994.4 hPa 0 mm 2.68 m/s, 317° - -
1788241088 28.33° C 44% 994.5 hPa 0 mm 0.45 m/s, 306° - -

* Rain latest hour (hover to see other rain measurements)
** Current wind speed in m/s (hover to see current wind gust speed)